KC4YLE Weather Reports


time (UTC)temp
F
wind
direction
speed
knots
gust
knots
rain 1hr
in
rain 24hr
in
rain mn
in
humidity
%
barometer
mb
20260502195051 58 40 0.0 1.7 0.00 0.00 0.00 60 1011.4
20260502194535 58 40 0.0 1.7 0.00 0.00 0.00 60 1011.5
20260502194040 59 40 0.0 2.6 0.00 0.00 0.00 60 1011.7
20260502193524 59 40 0.0 2.6 0.00 0.00 0.00 60 1011.8
20260502193048 59 313 0.0 0.0 0.00 0.00 0.00 59 1011.7
20260502192551 59 313 0.0 0.0 0.00 0.00 0.00 58 1011.6
20260502192034 59 30 0.0 0.9 0.00 0.00 0.00 62 1011.5
20260502191539 59 30 0.0 0.9 0.00 0.00 0.00 58 1011.5
20260502191023 59 30 0.0 0.9 0.00 0.00 0.00 59 1011.6
20260502190527 59 30 0.0 1.7 0.00 0.00 0.00 59 1011.5
20260502190033 59 30 0.0 1.7 0.00 0.00 0.00 58 1011.6
20260502185536 59 30 0.0 3.5 0.00 0.00 0.00 59 1011.6
20260502185023 59 86 0.0 2.6 0.00 0.00 0.00 58 1011.6
20260502184528 59 48 0.0 2.6 0.00 0.00 0.00 59 1011.6
20260502184032 59 47 0.0 3.5 0.00 0.00 0.00 58 1011.7
20260502183555 58 48 0.9 3.5 0.00 0.00 0.00 61 1011.9
20260502183040 58 70 0.0 2.6 0.00 0.00 0.00 60 1011.9
20260502182523 58 66 0.0 2.6 0.00 0.00 0.00 60 1012.0
20260502182028 58 66 0.0 2.6 0.00 0.00 0.00 60 1012.1
20260502181532 58 43 0.0 3.5 0.00 0.00 0.00 59 1012.1
20260502181055 58 351 0.0 4.3 0.00 0.00 0.00 60 1012.1
20260502180538 58 217 0.0 4.3 0.00 0.00 0.00 60 1012.1
20260502164036 58 126 0.0 4.3 0.00 0.00 0.00 60 1012.6
20260502163540 58 42 0.0 5.2 0.00 0.00 0.00 61 1012.7
20260502163024 58 5 0.9 5.2 0.00 0.00 0.00 62 1012.8
20260502162528 58 22 0.0 2.6 0.00 0.00 0.00 62 1013.1
20260502162052 57 234 0.0 5.2 0.00 0.00 0.00 62 1013.4
20260502161555 57 252 0.0 5.2 0.00 0.00 0.00 64 1013.4
20260502161038 57 42 0.9 3.5 0.00 0.00 0.00 64 1013.7
20260502160523 57 44 0.0 0.9 0.00 0.00 0.00 66 1013.8
20260502152044 57 59 0.0 6.1 0.00 0.00 0.00 67 1012.9
20260502151547 56 258 1.7 6.1 0.00 0.00 0.00 64 1013.0
20260502151030 56 48 0.0 2.6 0.00 0.00 0.00 68 1013.2
20260502150533 56 37 0.0 2.6 0.00 0.00 0.00 67 1013.1
20260502130530 53 61 0.0 2.6 0.00 0.00 0.00 76 1012.4
20260502123536 52 40 0.0 4.3 0.00 0.00 0.00 80 1012.5
20260502123041 52 51 0.0 1.7 0.00 0.00 0.00 81 1012.7
20260502122524 52 51 0.0 0.9 0.00 0.00 0.00 81 1012.5
20260502122029 51 51 0.0 0.9 0.00 0.00 0.00 81 1012.7
20260502121552 51 51 0.0 0.9 0.00 0.00 0.00 82 1012.6
20260502121035 51 51 0.0 1.7 0.00 0.00 0.00 82 1012.3
20260502120539 51 50 0.0 1.7 0.00 0.00 0.00 83 1012.5
20260502120104 51 50 0.0 1.7 0.00 0.00 0.00 84 1012.4
20260502115545 51 50 0.0 1.7 0.00 0.00 0.00 85 1012.5
20260502115028 50 51 0.0 0.9 0.00 0.00 0.00 86 1012.5
20260502114533 50 51 0.0 0.9 0.00 0.00 0.00 86 1012.5
20260502114037 50 51 0.0 4.3 0.00 0.00 0.00 87 1012.4
20260502113525 50 51 0.9 4.3 0.00 0.00 0.00 87 1012.3
20260502113030 50 147 0.0 0.0 0.00 0.00 0.00 88 1012.5
20260502112534 50 147 0.0 0.0 0.00 0.00 0.00 88 1012.4
20260502112038 50 147 0.0 0.0 0.00 0.00 0.00 88 1012.3
20260502111542 50 147 0.0 0.0 0.00 0.00 0.00 88 1012.3
20260502111026 50 147 0.0 0.0 0.00 0.00 0.00 88 1012.2
20260502110531 50 147 0.0 0.0 0.00 0.00 0.00 88 1012.3
20260502110034 50 147 0.0 0.0 0.00 0.00 0.00 88 1012.5
20260502105539 50 147 0.0 0.0 0.00 0.00 0.00 88 1012.6
20260502105042 50 147 0.0 0.0 0.00 0.00 0.00 89 1012.5
20260502104531 50 147 0.0 0.0 0.00 0.00 0.00 89 1012.6
20260502104035 50 147 0.0 0.0 0.00 0.00 0.00 89 1012.7
20260502103538 50 147 0.0 0.0 0.00 0.00 0.00 89 1012.7
20260502103042 50 147 0.0 0.0 0.00 0.00 0.00 89 1012.7
20260502102526 50 147 0.0 0.0 0.00 0.00 0.00 89 1012.7
20260502102029 50 147 0.0 0.0 0.00 0.00 0.00 89 1012.6
20260502101057 50 147 0.0 0.0 0.00 0.00 0.00 89 1012.7
20260502100541 50 147 0.0 0.0 0.00 0.00 0.00 89 1012.6
20260502091045 50 147 0.0 0.0 0.00 0.00 0.00 89 1012.3
20260502090528 50 147 0.0 0.0 0.00 0.00 0.00 89 1012.3
20260502071534 50 147 0.0 0.0 0.00 0.00 0.00 89 1011.3
20260502071039 50 147 0.0 0.0 0.00 0.00 0.00 89 1011.4
20260502070603 50 147 0.0 0.0 0.00 0.00 0.00 89 1011.5
20260502070025 50 147 0.0 0.0 0.00 0.00 0.00 89 1011.5
20260502065529 50 147 0.0 0.0 0.00 0.00 0.00 88 1011.6
20260502065032 50 147 0.0 0.0 0.00 0.00 0.00 88 1011.6
20260502064537 50 147 0.0 0.0 0.00 0.00 0.00 88 1011.7
20260502064100 50 147 0.0 0.0 0.00 0.00 0.00 88 1011.8
20260502063604 49 147 0.0 0.0 0.00 0.00 0.00 88 1011.9
20260502063027 49 147 0.0 0.0 0.00 0.00 0.00 88 1011.9
20260502062535 49 147 0.0 0.0 0.00 0.00 0.00 88 1012.0
20260502062038 49 147 0.0 0.0 0.00 0.00 0.00 87 1011.9
20260502061523 49 147 0.0 0.0 0.00 0.00 0.00 87 1011.9
20260502061027 49 147 0.0 0.0 0.00 0.00 0.00 87 1011.9
20260502060530 49 147 0.0 0.0 0.00 0.00 0.00 87 1011.8
20260502060034 49 147 0.0 0.0 0.00 0.00 0.00 87 1011.8
20260502055538 49 147 0.0 0.0 0.00 0.00 0.00 86 1011.7
20260502055041 49 147 0.0 0.0 0.00 0.00 0.00 86 1011.6
20260502054545 49 147 0.0 0.0 0.00 0.00 0.00 86 1011.6
20260502054029 49 147 0.0 0.0 0.00 0.00 0.00 86 1011.7
20260502053532 49 147 0.0 0.0 0.00 0.00 0.00 86 1011.6
20260502053036 50 147 0.0 0.0 0.00 0.00 0.00 86 1011.8
20260502052524 50 147 0.0 0.0 0.00 0.00 0.00 86 1011.8
20260502052048 50 147 0.0 0.0 0.00 0.00 0.00 85 1011.8
20260502051532 50 147 0.0 0.0 0.00 0.00 0.00 85 1011.9
20260502051036 50 147 0.0 0.0 0.00 0.00 0.00 85 1011.8
20260502050541 50 147 0.0 0.0 0.00 0.00 0.00 85 1011.9
20260502050043 50 147 0.0 0.0 0.00 0.00 0.00 85 1011.9
20260502045547 50 147 0.0 0.0 0.00 0.00 0.00 85 1011.9
20260502045030 50 147 0.0 0.0 0.00 0.00 0.00 85 1012.0
20260502044532 50 147 0.0 0.0 0.00 0.00 0.00 85 1012.1
20260502044036 50 147 0.0 0.0 0.00 0.00 0.00 85 1012.0
20260502043539 50 147 0.0 0.0 0.00 0.00 0.00 85 1012.1
20260502043043 50 147 0.0 0.0 0.00 0.00 0.00 85 1012.0
20260502042547 50 147 0.0 0.0 0.00 0.00 0.00 84 1012.1
20260502042034 51 147 0.0 0.0 0.00 0.00 0.00 84 1012.1
20260502041538 51 147 0.0 0.0 0.00 0.00 0.00 84 1012.1
20260502041042 51 147 0.0 0.0 0.00 0.00 0.00 84 1012.1
20260502040526 51 147 0.0 0.0 0.00 0.00 0.00 84 1012.2
20260502040051 51 147 0.0 0.0 0.00 0.00 0.00 84 1012.3
20260502035532 51 147 0.0 0.0 0.00 0.00 0.00 84 1012.3
20260502035035 51 147 0.0 0.0 0.00 0.00 0.00 84 1012.2
20260502034539 51 147 0.0 0.0 0.00 0.00 0.00 84 1012.2
20260502034042 51 147 0.0 0.0 0.00 0.00 0.00 84 1012.4
20260502033526 51 147 0.0 0.0 0.00 0.00 0.00 84 1012.3
20260502033029 51 147 0.0 0.0 0.00 0.00 0.00 84 1012.4
20260502032533 52 147 0.0 0.0 0.00 0.00 0.00 84 1012.3
20260502032041 52 147 0.0 0.0 0.00 0.00 0.00 84 1012.3
20260502031524 52 147 0.0 0.0 0.00 0.00 0.00 84 1012.2
20260502031028 52 147 0.0 0.0 0.00 0.00 0.00 84 1012.3
20260502030553 52 147 0.0 0.0 0.00 0.00 0.00 84 1012.5
20260502030056 52 147 0.0 1.7 0.00 0.00 0.00 83 1012.3
20260502025539 52 135 0.0 0.0 0.00 0.00 0.00 83 1012.4
20260502025042 52 135 0.0 0.9 0.00 0.00 0.00 83 1012.4
20260502024525 52 135 0.0 2.6 0.00 0.00 0.00 83 1012.3
20260502024049 52 135 0.0 2.6 0.00 0.00 0.00 83 1012.3
20260502023553 52 227 0.0 0.9 0.00 0.00 0.00 82 1012.3
20260502023037 52 227 0.0 0.0 0.00 0.00 0.00 82 1012.3
20260502022541 52 229 0.0 0.9 0.00 0.00 0.00 82 1012.2
20260502022024 52 229 0.0 0.9 0.00 0.00 0.00 82 1012.3
20260502021528 53 232 0.0 2.6 0.00 0.00 0.00 81 1012.3
20260502021036 53 221 0.0 1.7 0.00 0.00 0.00 81 1012.4
20260502020538 53 217 0.0 1.7 0.00 0.00 0.00 81 1012.3
20260502020042 53 238 0.0 2.6 0.00 0.00 0.00 81 1012.3
20260502015526 53 238 0.0 2.6 0.00 0.00 0.00 80 1012.4
20260502015029 53 211 0.0 0.9 0.00 0.00 0.00 80 1012.4
20260502014534 53 211 0.0 2.6 0.00 0.00 0.00 80 1012.4
20260502014037 53 210 0.0 3.5 0.00 0.00 0.00 80 1012.3
20260502013541 53 210 0.0 3.5 0.00 0.00 0.00 80 1012.3
20260502013025 54 176 0.0 3.5 0.00 0.00 0.00 79 1012.2
20260502012528 54 169 0.9 3.5 0.00 0.00 0.00 79 1012.2
20260502012032 54 231 0.0 2.6 0.00 0.00 0.00 79 1012.2
20260502011539 54 231 0.0 2.6 0.00 0.00 0.00 79 1012.1
20260502011042 54 225 0.9 3.5 0.00 0.00 0.00 78 1012.2
20260502010527 54 223 0.0 3.5 0.00 0.00 0.00 78 1012.0
20260502010030 54 207 0.0 1.7 0.00 0.00 0.00 78 1012.0
20260502005535 54 207 0.0 0.9 0.00 0.00 0.00 77 1011.8
20260502005040 55 207 0.0 1.7 0.00 0.00 0.00 77 1011.8
20260502004542 55 207 0.0 3.5 0.00 0.00 0.00 77 1011.8
20260502004026 55 212 0.9 3.5 0.00 0.00 0.00 76 1011.9
20260502003551 55 210 0.0 1.7 0.00 0.00 0.00 75 1011.8
20260502003033 56 210 0.0 0.9 0.00 0.00 0.00 75 1011.7
20260502002538 56 210 0.0 0.9 0.00 0.00 0.00 74 1011.7
20260502002025 56 210 0.0 0.0 0.00 0.00 0.00 73 1011.6
20260502001549 56 210 0.0 1.7 0.00 0.00 0.00 73 1011.4
20260502001032 57 210 0.0 2.6 0.00 0.00 0.00 73 1011.3
20260502000537 57 209 0.0 3.5 0.00 0.00 0.00 72 1011.4
20260502000041 57 225 0.0 3.5 0.00 0.00 0.00 71 1011.4
20260501235524 58 46 0.0 0.0 0.00 0.00 0.00 70 1011.4
20260501235029 58 46 0.0 0.9 0.00 0.00 0.00 70 1011.3
20260501234531 58 46 0.0 1.7 0.00 0.00 0.00 69 1011.3
20260501234035 58 46 0.0 1.7 0.00 0.00 0.00 69 1011.4
20260501233539 58 138 0.0 6.1 0.00 0.00 0.00 69 1011.3
20260501233024 59 200 0.9 6.1 0.00 0.00 0.00 68 1011.3
20260501232549 59 111 0.9 4.3 0.00 0.00 0.00 67 1011.3
20260501232031 59 198 0.0 6.1 0.00 0.00 0.00 66 1011.3
20260501231539 59 229 1.7 6.1 0.00 0.00 0.00 66 1011.2
20260501231042 60 98 0.0 1.7 0.00 0.00 0.00 66 1011.1
20260501230527 60 153 0.0 7.0 0.00 0.00 0.00 65 1011.2
20260501230031 60 188 0.9 4.3 0.00 0.00 0.00 65 1011.3
20260501225535 60 115 0.0 2.6 0.00 0.00 0.00 64 1011.2
20260501225039 61 213 0.0 3.5 0.00 0.00 0.00 63 1011.2
20260501224543 61 133 0.0 6.1 0.00 0.00 0.00 63 1011.2
20260501224047 61 104 0.9 6.1 0.00 0.00 0.00 63 1011.3
20260501223529 62 148 0.0 5.2 0.00 0.00 0.00 63 1011.3
20260501223033 62 286 0.0 4.3 0.00 0.00 0.00 64 1011.4
20260501222538 62 288 0.9 4.3 0.00 0.00 0.00 63 1011.3
20260501222026 62 196 0.9 7.0 0.00 0.00 0.00 63 1011.3
20260501221531 63 94 1.7 7.0 0.00 0.00 0.00 62 1011.3
20260501221056 63 241 0.0 4.3 0.00 0.00 0.00 62 1011.2
20260501220537 63 190 0.0 3.5 0.00 0.00 0.00 62 1011.3
20260501220040 63 294 0.9 3.5 0.00 0.00 0.00 62 1011.3
20260501215524 63 252 0.9 5.2 0.00 0.00 0.00 61 1011.3
20260501215048 64 185 1.7 7.0 0.00 0.00 0.00 59 1011.3
20260501214552 64 166 0.9 10.4 0.00 0.00 0.00 58 1011.4
20260501214031 64 227 0.0 10.4 0.00 0.00 0.00 58 1011.4
20260501213535 65 313 0.9 7.8 0.00 0.00 0.00 56 1011.5
20260501213038 65 138 0.0 5.2 0.00 0.00 0.00 54 1011.4
20260501212543 66 182 0.9 4.3 0.00 0.00 0.00 54 1011.4
20260501212027 66 197 0.9 4.3 0.00 0.00 0.00 53 1011.4
20260501211530 67 229 0.0 2.6 0.00 0.00 0.00 53 1011.5
20260501211055 67 105 0.0 4.3 0.00 0.00 0.00 51 1011.7
20260501210541 67 242 0.0 5.2 0.00 0.00 0.00 50 1011.8
20260501210024 67 81 0.9 5.2 0.00 0.00 0.00 51 1011.8
20260501205529 68 197 0.9 4.3 0.00 0.00 0.00 52 1011.7
20260501205033 68 298 0.9 6.1 0.00 0.00 0.00 50 1011.8
20260501204536 68 181 1.7 6.1 0.00 0.00 0.00 51 1011.7
20260501204040 68 207 0.9 4.3 0.00 0.00 0.00 51 1011.6
20260501203525 68 121 0.9 5.2 0.00 0.00 0.00 52 1011.7
20260501203050 68 183 0.9 5.2 0.00 0.00 0.00 51 1011.8
20260501202552 68 96 1.7 5.2 0.00 0.00 0.00 49 1011.8
20260501202036 68 176 0.9 5.2 0.00 0.00 0.00 49 1011.9
20260501201600 69 157 0.9 5.2 0.00 0.00 0.00 48 1011.9
20260501201023 69 321 0.9 3.5 0.00 0.00 0.00 48 1011.8
20260501200527 69 155 0.0 4.3 0.00 0.00 0.00 48 1011.9
20260501200036 69 121 0.0 5.2 0.00 0.00 0.00 47 1012.0
20260501195539 69 191 0.9 5.2 0.00 0.00 0.00 46 1012.1